Details From KDSM - Des Moines Intl
To KAUM - AUSTIN MUNI
Flight Number -
Tags generated
Created
Modified
Stats Distance 132 nm / 244 km
Max Altitude 9,500 ft / 2,896 m
Waypoints 4
Social Downloads 0
Likes 0
Share VATSIM

Download

Looking for another format? Having issues loading an existing format? Contact us
Advertisement - Login to hide

Notes

Basic altitude profile: - Ascent Rate: 2500ft/min - Ascent Speed: 250kts - Cruise Altitude: 35000ft - Cruise Speed: 420kts - Descent Rate: 1500ft/min - Descent Speed: 250kts Options: - Use NATs: yes - Use PACOTS: yes - Use low airways: yes - Use high airways: yes

Route

KDSM ANKEN V13 NEVAD KAUM

ID Type Via Altitude Latitude Longitude Leg Dist Tot Dist Heading (true) Name
O KDSM APT - 0 ft / 0 m 41.53397˚ -93.66307˚ - 0 nm - Des Moines Intl
ANKEN FIX - 4,300 ft / 1,311 m 41.72957˚ -93.59363˚ 12 nm 12 nm 15° / 15° -
NEVAD FIX V13 (AWY-LO) 9,500 ft / 2,896 m 42.01614˚ -93.53901˚ 17 nm 29 nm 8° / 8° -
O KAUM APT - 0 ft / 0 m 43.66263˚ -92.93293˚ 102 nm 131 nm 15° / 15° AUSTIN MUNI

Altitude Profile

Advertisement - Login to hide

KDSM

Details ICAO KDSM (DSM)
Name Des Moines Intl
Region United States
Timezone America/Chicago (UTC-5.0)
Stats Elevation 957 ft / 292 m (AMSL)
Location 41.533972° -93.663071°
Runways 2
Magnetic Variation 0.798° E

METAR

KDSM 250254Z 16006KT 10SM FEW060 FEW140 SCT180 BKN250 25/18 A2995 RMK AO2 SLP134 T02500183 53000

Decode

TAF

KDSM 250159Z 2502/2524 18008KT P6SM FEW150 SCT250 FM250900 17006KT P6SM VCTS FEW040CB BKN120 FM251500 19007KT P6SM BKN150 FM251900 22012KT P6SM SCT250

Decode

Departure Runways

ID Width Length Bearing (true) Bearing (mag) Surface Threshold Offset Overrun Length
05 150 ft / 46 m 8,994 ft / 2,741 m 53.72° 52.92° Asphalt 120 ft / 37 m 100 ft / 30 m
13 150 ft / 46 m 8,995 ft / 2,742 m 132.44° 131.64° Asphalt 120 ft / 37 m 100 ft / 30 m
23 150 ft / 46 m 8,994 ft / 2,741 m 233.74° 232.94° Asphalt 120 ft / 37 m 100 ft / 30 m
31 150 ft / 46 m 8,995 ft / 2,742 m 312.46° 311.66° Asphalt 120 ft / 37 m 100 ft / 30 m

KAUM

Details ICAO KAUM
Name AUSTIN MUNI
Region United States
Timezone America/Chicago (UTC-5.0)
Stats Elevation 1,233 ft / 376 m (AMSL)
Location 43.662633° -92.932931°
Runways 1
Magnetic Variation 0.046° E

METAR

KAUM 250335Z AUTO 23012G19KT 10SM SCT060 BKN080 25/16 A2997 RMK AO2 LTG DSNT N AND NW

Decode

TAF

Not found

Destination Runways

ID Width Length Bearing (true) Bearing (mag) Surface Threshold Offset Overrun Length
17 100 ft / 30 m 5,806 ft / 1,770 m 172.16° 172.11° Concrete 0 ft / 0 m 0 ft / 0 m
35 100 ft / 30 m 5,806 ft / 1,770 m 352.16° 352.11° Concrete 0 ft / 0 m 0 ft / 0 m